User: anonymous   Login
Location: Oshawa
(43.9000°N, 78.8670°W)
Time: 06:58:02
(UTC-04:00)
Language:

Explorer 7 - Orbit

View from above orbital plane
View from above orbital plane
View from above satellite
View from above satellite

Ground track
Ground track

The orbit data is extracted from the following two-line orbital elements,

1 00022U 59009A   17291.18842454  .00000354  00000-0  50268-4 0  9990
2 00022  50.2851 345.9565 0141610 142.4834 218.6097 14.94322242 79746
Epoch (UTC): 18 October 2017 04:31:19
Eccentricity: 0.0141610
inclination: 50.2851°
perigee height: 486 km
apogee height: 683 km
right ascension of ascending node: 345.9565°
argument of perigee: 142.4834°
revolutions per day: 14.94322242
mean anomaly at epoch: 218.6097°
orbit number at epoch: 7974

The dashed part of the orbit path shows where the satellite is in the earth's shadow,  

DLR